Time,TemperatureF,DewpointF,PressureIn,WindDirection,WindDirectionDegrees,WindSpeedMPH,WindSpeedGustMPH,Humidity,HourlyPrecipIn,Conditions,Clouds,dailyrainin,SoftwareType,DateUTC
2013-02-22 00:01:00,11.0,9.0,-100.00,SE,145,2.0,6.0,90,-99.99,,,-99.99,,2013-02-22 07:01:00,
2013-02-22 00:11:00,12.0,10.0,-100.00,ESE,120,1.0,4.0,90,-99.99,,,-99.99,,2013-02-22 07:11:00,
2013-02-22 00:21:00,12.0,10.0,-100.00,ESE,115,1.0,5.0,89,-99.99,,,-99.99,,2013-02-22 07:21:00,
2013-02-22 00:31:00,13.0,10.0,-100.00,SE,135,2.0,12.0,86,-99.99,,,-99.99,,2013-02-22 07:31:00,
2013-02-22 00:42:00,14.0,10.0,-100.00,NNW,330,4.0,9.0,85,-99.99,,,-99.99,,2013-02-22 07:42:00,
2013-02-22 00:51:00,14.0,10.0,-100.00,WNW,290,2.0,9.0,81,-99.99,,,-99.99,,2013-02-22 07:51:00,
2013-02-22 01:01:00,13.0,9.0,-100.00,ENE,70,2.0,6.0,81,-99.99,,,-99.99,,2013-02-22 08:01:00,
2013-02-22 01:11:00,14.0,9.0,-100.00,ENE,60,1.0,9.0,81,-99.99,,,-99.99,,2013-02-22 08:11:00,
2013-02-22 01:21:00,15.0,9.0,-100.00,NW,325,5.0,11.0,77,-99.99,,,-99.99,,2013-02-22 08:21:00,
2013-02-22 01:31:00,15.0,9.0,-100.00,NW,315,3.0,14.0,76,-99.99,,,-99.99,,2013-02-22 08:31:00,
2013-02-22 01:41:00,15.0,9.0,-100.00,NNW,330,6.0,12.0,74,-99.99,,,-99.99,,2013-02-22 08:41:00,
2013-02-22 01:52:00,16.0,8.0,-100.00,NNW,330,4.0,10.0,71,-99.99,,,-99.99,,2013-02-22 08:52:00,
2013-02-22 02:03:00,15.0,8.0,-100.00,NW,305,3.0,9.0,71,-99.99,,,-99.99,,2013-02-22 09:03:00,
2013-02-22 02:11:00,15.0,8.0,-100.00,South,175,2.0,5.0,73,-99.99,,,-99.99,,2013-02-22 09:11:00,
2013-02-22 02:21:00,16.0,8.0,-100.00,South,185,2.0,7.0,71,-99.99,,,-99.99,,2013-02-22 09:21:00,
2013-02-22 02:32:00,16.0,8.0,-100.00,SW,215,5.0,11.0,70,-99.99,,,-99.99,,2013-02-22 09:32:00,
2013-02-22 02:42:00,17.0,8.0,-100.00,West,270,6.0,12.0,68,-99.99,,,-99.99,,2013-02-22 09:42:00,
2013-02-22 02:51:00,17.0,8.0,-100.00,NNW,335,9.0,16.0,66,-99.99,,,-99.99,,2013-02-22 09:51:00,
2013-02-22 03:01:00,17.0,7.0,-100.00,WNW,295,6.0,16.0,66,-99.99,,,-99.99,,2013-02-22 10:01:00,
2013-02-22 03:11:00,17.0,7.0,-100.00,West,275,9.0,19.0,65,-99.99,,,-99.99,,2013-02-22 10:11:00,
2013-02-22 03:21:00,16.0,7.0,-100.00,WNW,290,7.0,19.0,65,-99.99,,,-99.99,,2013-02-22 10:21:00,
2013-02-22 03:32:00,16.0,6.0,-100.00,WNW,285,5.0,21.0,65,-99.99,,,-99.99,,2013-02-22 10:32:00,
2013-02-22 03:42:00,16.0,6.0,-100.00,WNW,295,9.0,17.0,64,-99.99,,,-99.99,,2013-02-22 10:42:00,
2013-02-22 03:51:00,17.0,6.0,-100.00,NW,325,8.0,21.0,62,-99.99,,,-99.99,,2013-02-22 10:51:00,
2013-02-22 04:01:00,16.0,6.0,-100.00,North,355,6.0,17.0,62,-99.99,,,-99.99,,2013-02-22 11:01:00,
2013-02-22 04:11:00,16.0,6.0,-100.00,NNW,330,4.0,11.0,62,-99.99,,,-99.99,,2013-02-22 11:11:00,
2013-02-22 04:21:00,16.0,6.0,-100.00,WSW,250,3.0,12.0,62,-99.99,,,-99.99,,2013-02-22 11:21:00,
2013-02-22 04:32:00,16.0,6.0,-100.00,NW,315,4.0,17.0,62,-99.99,,,-99.99,,2013-02-22 11:32:00,
2013-02-22 04:42:00,16.0,6.0,-100.00,NW,315,11.0,21.0,62,-99.99,,,-99.99,,2013-02-22 11:42:00,
2013-02-22 04:52:00,16.0,5.0,-100.00,WNW,295,6.0,25.0,62,-99.99,,,-99.99,,2013-02-22 11:52:00,
2013-02-22 05:02:00,15.0,5.0,-100.00,WNW,285,6.0,22.0,63,-99.99,,,-99.99,,2013-02-22 12:02:00,
2013-02-22 05:11:00,16.0,5.0,-100.00,WSW,240,6.0,17.0,63,-99.99,,,-99.99,,2013-02-22 12:11:00,
2013-02-22 05:21:00,15.0,5.0,-100.00,West,270,9.0,17.0,63,-99.99,,,-99.99,,2013-02-22 12:21:00,
2013-02-22 05:32:00,15.0,5.0,-100.00,WNW,290,7.0,19.0,63,-99.99,,,-99.99,,2013-02-22 12:32:00,
2013-02-22 05:42:00,15.0,5.0,-100.00,SW,230,6.0,16.0,62,-99.99,,,-99.99,,2013-02-22 12:42:00,
2013-02-22 05:52:00,15.0,5.0,-100.00,WSW,255,4.0,17.0,62,-99.99,,,-99.99,,2013-02-22 12:52:00,
2013-02-22 06:01:00,15.0,5.0,-100.00,WSW,240,3.0,9.0,63,-99.99,,,-99.99,,2013-02-22 13:01:00,
2013-02-22 06:11:00,15.0,5.0,-100.00,ENE,75,2.0,7.0,63,-99.99,,,-99.99,,2013-02-22 13:11:00,
2013-02-22 06:22:00,15.0,4.0,-100.00,NNW,335,3.0,16.0,62,-99.99,,,-99.99,,2013-02-22 13:22:00,
2013-02-22 06:32:00,15.0,4.0,-100.00,SSW,210,3.0,7.0,62,-99.99,,,-99.99,,2013-02-22 13:32:00,
2013-02-22 06:42:00,15.0,4.0,-100.00,South,175,2.0,9.0,62,-99.99,,,-99.99,,2013-02-22 13:42:00,
2013-02-22 06:51:00,14.0,4.0,-100.00,SSE,155,1.0,7.0,64,-99.99,,,-99.99,,2013-02-22 13:51:00,
2013-02-22 07:01:00,14.0,4.0,-100.00,NNW,330,4.0,9.0,64,-99.99,,,-99.99,,2013-02-22 14:01:00,
2013-02-22 07:11:00,14.0,4.0,-100.00,SW,230,3.0,6.0,63,-99.99,,,-99.99,,2013-02-22 14:11:00,
2013-02-22 07:21:00,14.0,4.0,-100.00,SSW,205,2.0,7.0,63,-99.99,,,-99.99,,2013-02-22 14:21:00,
2013-02-22 07:32:00,14.0,4.0,-100.00,South,185,4.0,9.0,63,-99.99,,,-99.99,,2013-02-22 14:32:00,
2013-02-22 07:42:00,15.0,4.0,-100.00,WNW,285,4.0,12.0,62,-99.99,,,-99.99,,2013-02-22 14:42:00,
2013-02-22 07:52:00,15.0,4.0,-100.00,South,170,2.0,12.0,60,-99.99,,,-99.99,,2013-02-22 14:52:00,
2013-02-22 08:01:00,15.0,4.0,-100.00,West,265,2.0,6.0,59,-99.99,,,-99.99,,2013-02-22 15:01:00,
2013-02-22 08:11:00,16.0,4.0,-100.00,WSW,245,2.0,7.0,58,-99.99,,,-99.99,,2013-02-22 15:11:00,
2013-02-22 08:21:00,16.0,4.0,-100.00,NW,320,1.0,8.0,57,-99.99,,,-99.99,,2013-02-22 15:21:00,
2013-02-22 08:32:00,17.0,4.0,-100.00,WNW,295,4.0,10.0,56,-99.99,,,-99.99,,2013-02-22 15:32:00,
2013-02-22 08:42:00,17.0,3.0,-100.00,WSW,245,2.0,13.0,54,-99.99,,,-99.99,,2013-02-22 15:42:00,
2013-02-22 08:52:00,17.0,4.0,-100.00,SE,140,1.0,9.0,54,-99.99,,,-99.99,,2013-02-22 15:52:00,
2013-02-22 09:01:00,17.0,3.0,-100.00,NNW,345,4.0,16.0,54,-99.99,,,-99.99,,2013-02-22 16:01:00,
2013-02-22 09:12:00,17.0,3.0,-100.00,NW,315,5.0,9.0,53,-99.99,,,-99.99,,2013-02-22 16:12:00,
2013-02-22 09:21:00,17.0,3.0,-100.00,NW,310,4.0,12.0,53,-99.99,,,-99.99,,2013-02-22 16:21:00,
2013-02-22 09:32:00,18.0,4.0,-100.00,NW,305,3.0,9.0,52,-99.99,,,-99.99,,2013-02-22 16:32:00,
2013-02-22 09:42:00,18.0,3.0,-100.00,NNW,335,4.0,11.0,51,-99.99,,,-99.99,,2013-02-22 16:42:00,
2013-02-22 09:52:00,19.0,3.0,-100.00,NW,320,7.0,13.0,50,-99.99,,,-99.99,,2013-02-22 16:52:00,
2013-02-22 10:01:00,19.0,3.0,-100.00,NNW,330,6.0,11.0,49,-99.99,,,-99.99,,2013-02-22 17:01:00,
2013-02-22 10:11:00,19.0,3.0,-100.00,NNE,15,5.0,12.0,49,-99.99,,,-99.99,,2013-02-22 17:11:00,
2013-02-22 10:21:00,20.0,4.0,-100.00,West,280,5.0,13.0,48,-99.99,,,-99.99,,2013-02-22 17:21:00,
2013-02-22 10:31:00,20.0,4.0,-100.00,NW,320,5.0,16.0,47,-99.99,,,-99.99,,2013-02-22 17:31:00,
2013-02-22 10:42:00,21.0,4.0,-100.00,NW,315,4.0,18.0,47,-99.99,,,-99.99,,2013-02-22 17:42:00,
2013-02-22 10:52:00,22.0,4.0,-100.00,NW,315,5.0,15.0,46,-99.99,,,-99.99,,2013-02-22 17:52:00,
2013-02-22 11:01:00,22.0,6.0,-100.00,North,0,4.0,11.0,49,-99.99,,,-99.99,,2013-02-22 18:01:00,
2013-02-22 11:12:00,22.0,6.0,-100.00,North,0,2.0,7.0,49,-99.99,,,-99.99,,2013-02-22 18:12:00,
2013-02-22 11:22:00,23.0,6.0,-100.00,NNE,15,4.0,9.0,48,-99.99,,,-99.99,,2013-02-22 18:22:00,
2013-02-22 11:32:00,22.0,7.0,-100.00,North,5,4.0,9.0,51,-99.99,,,-99.99,,2013-02-22 18:32:00,
2013-02-22 11:42:00,22.0,6.0,-100.00,NW,305,7.0,14.0,48,-99.99,,,-99.99,,2013-02-22 18:42:00,
2013-02-22 11:51:00,22.0,4.0,-100.00,NNW,330,7.0,16.0,46,-99.99,,,-99.99,,2013-02-22 18:51:00,
2013-02-22 12:01:00,22.0,4.0,-100.00,SW,215,4.0,12.0,45,-99.99,,,-99.99,,2013-02-22 19:01:00,
2013-02-22 12:11:00,22.0,4.0,-100.00,NW,320,6.0,13.0,44,-99.99,,,-99.99,,2013-02-22 19:11:00,
2013-02-22 12:21:00,22.0,4.0,-100.00,NW,320,8.0,14.0,44,-99.99,,,-99.99,,2013-02-22 19:21:00,
2013-02-22 12:31:00,24.0,4.0,-100.00,SSW,205,6.0,13.0,43,-99.99,,,-99.99,,2013-02-22 19:31:00,
2013-02-22 12:41:00,24.0,4.0,-100.00,WNW,290,4.0,14.0,42,-99.99,,,-99.99,,2013-02-22 19:41:00,
2013-02-22 12:52:00,23.0,3.0,-100.00,West,275,4.0,13.0,41,-99.99,,,-99.99,,2013-02-22 19:52:00,
2013-02-22 13:01:00,22.0,3.0,-100.00,WNW,290,6.0,11.0,41,-99.99,,,-99.99,,2013-02-22 20:01:00,
2013-02-22 13:11:00,21.0,2.0,-100.00,SW,225,6.0,14.0,42,-99.99,,,-99.99,,2013-02-22 20:11:00,
2013-02-22 13:21:00,21.0,2.0,-100.00,NW,315,6.0,14.0,43,-99.99,,,-99.99,,2013-02-22 20:21:00,
2013-02-22 13:31:00,20.0,2.0,-100.00,NW,305,4.0,14.0,44,-99.99,,,-99.99,,2013-02-22 20:31:00,
2013-02-22 13:41:00,20.0,2.0,-100.00,West,270,3.0,13.0,44,-99.99,,,-99.99,,2013-02-22 20:41:00,
2013-02-22 13:52:00,20.0,2.0,-100.00,NW,325,7.0,13.0,44,-99.99,,,-99.99,,2013-02-22 20:52:00,
2013-02-22 14:01:00,21.0,3.0,-100.00,WNW,300,4.0,11.0,44,-99.99,,,-99.99,,2013-02-22 21:01:00,
2013-02-22 14:11:00,21.0,4.0,-100.00,NNW,335,7.0,11.0,45,-99.99,,,-99.99,,2013-02-22 21:11:00,
2013-02-22 14:21:00,22.0,4.0,-100.00,NW,325,9.0,17.0,45,-99.99,,,-99.99,,2013-02-22 21:21:00,
2013-02-22 14:32:00,22.0,5.0,-100.00,NW,320,4.0,17.0,45,-99.99,,,-99.99,,2013-02-22 21:32:00,
2013-02-22 14:42:00,23.0,6.0,-100.00,West,280,5.0,14.0,47,-99.99,,,-99.99,,2013-02-22 21:42:00,
2013-02-22 14:51:00,24.0,7.0,-100.00,SW,215,6.0,12.0,48,-99.99,,,-99.99,,2013-02-22 21:51:00,
2013-02-22 15:01:00,24.0,6.0,-100.00,WNW,295,4.0,13.0,45,-99.99,,,-99.99,,2013-02-22 22:01:00,
2013-02-22 15:11:00,25.0,7.0,-100.00,WNW,300,3.0,14.0,45,-99.99,,,-99.99,,2013-02-22 22:11:00,
2013-02-22 15:21:00,21.0,7.0,-100.00,NW,315,6.0,15.0,52,-99.99,,,-99.99,,2013-02-22 22:21:00,
2013-02-22 15:31:00,21.0,8.0,-100.00,NW,315,7.0,17.0,57,-99.99,,,-99.99,,2013-02-22 22:31:00,
2013-02-22 15:41:00,21.0,8.0,-100.00,NW,305,8.0,14.0,56,-99.99,,,-99.99,,2013-02-22 22:41:00,
2013-02-22 15:51:00,21.0,8.0,-100.00,NW,325,6.0,12.0,54,-99.99,,,-99.99,,2013-02-22 22:51:00,
2013-02-22 16:01:00,20.0,8.0,-100.00,NW,305,6.0,16.0,58,-99.99,,,-99.99,,2013-02-22 23:01:00,
2013-02-22 16:11:00,20.0,8.0,-100.00,North,0,3.0,10.0,59,-99.99,,,-99.99,,2013-02-22 23:11:00,
2013-02-22 16:21:00,19.0,6.0,-100.00,NW,325,6.0,12.0,58,-99.99,,,-99.99,,2013-02-22 23:21:00,
2013-02-22 16:31:00,18.0,7.0,-100.00,SW,235,6.0,15.0,60,-99.99,,,-99.99,,2013-02-22 23:31:00,
2013-02-22 16:41:00,18.0,7.0,-100.00,West,270,3.0,17.0,60,-99.99,,,-99.99,,2013-02-22 23:41:00,
2013-02-22 16:52:00,17.0,7.0,-100.00,NW,320,8.0,17.0,65,-99.99,,,-99.99,,2013-02-22 23:52:00,
2013-02-22 17:01:00,16.0,8.0,-100.00,NW,310,6.0,16.0,68,-99.99,,,-99.99,,2013-02-23 00:01:00,
2013-02-22 17:11:00,16.0,8.0,-100.00,SW,235,7.0,13.0,69,-99.99,,,-99.99,,2013-02-23 00:11:00,
2013-02-22 17:21:00,16.0,8.0,-100.00,West,265,4.0,11.0,68,-99.99,,,-99.99,,2013-02-23 00:21:00,
2013-02-22 17:32:00,16.0,8.0,-100.00,SSW,205,2.0,13.0,67,-99.99,,,-99.99,,2013-02-23 00:32:00,
2013-02-22 17:42:00,16.0,6.0,-100.00,North,10,2.0,9.0,65,-99.99,,,-99.99,,2013-02-23 00:42:00,
2013-02-22 17:51:00,16.0,6.0,-100.00,South,175,1.0,11.0,64,-99.99,,,-99.99,,2013-02-23 00:51:00,
2013-02-22 18:01:00,15.0,5.0,-100.00,SSW,210,2.0,6.0,63,-99.99,,,-99.99,,2013-02-23 01:01:00,
2013-02-22 18:11:00,15.0,4.0,-100.00,SSW,205,4.0,13.0,58,-99.99,,,-99.99,,2013-02-23 01:11:00,
2013-02-22 18:21:00,15.0,2.0,-100.00,WSW,240,6.0,17.0,55,-99.99,,,-99.99,,2013-02-23 01:21:00,
2013-02-22 18:31:00,15.0,2.0,-100.00,WSW,250,4.0,16.0,54,-99.99,,,-99.99,,2013-02-23 01:31:00,
2013-02-22 18:42:00,15.0,1.0,-100.00,SW,230,8.0,17.0,53,-99.99,,,-99.99,,2013-02-23 01:42:00,
2013-02-22 18:51:00,15.0,1.0,-100.00,WSW,240,5.0,22.0,53,-99.99,,,-99.99,,2013-02-23 01:51:00,
2013-02-22 19:01:00,14.0,1.0,-100.00,NW,315,9.0,22.0,54,-99.99,,,-99.99,,2013-02-23 02:01:00,
2013-02-22 19:11:00,14.0,1.0,-100.00,WSW,250,9.0,21.0,54,-99.99,,,-99.99,,2013-02-23 02:11:00,
2013-02-22 19:21:00,14.0,1.0,-100.00,WSW,250,8.0,23.0,54,-99.99,,,-99.99,,2013-02-23 02:21:00,
2013-02-22 19:31:00,13.0,0.0,-100.00,WNW,290,7.0,22.0,54,-99.99,,,-99.99,,2013-02-23 02:31:00,
2013-02-22 19:42:00,13.0,0.0,-100.00,WNW,285,8.0,17.0,55,-99.99,,,-99.99,,2013-02-23 02:42:00,
2013-02-22 19:52:00,13.0,0.0,-100.00,NW,315,9.0,17.0,55,-99.99,,,-99.99,,2013-02-23 02:52:00,
2013-02-22 20:01:00,13.0,0.0,-100.00,WNW,290,7.0,19.0,56,-99.99,,,-99.99,,2013-02-23 03:01:00,
2013-02-22 20:11:00,12.0,0.0,-100.00,NW,310,11.0,26.0,57,-99.99,,,-99.99,,2013-02-23 03:11:00,
2013-02-22 20:21:00,12.0,0.0,-100.00,NW,310,9.0,23.0,57,-99.99,,,-99.99,,2013-02-23 03:21:00,
2013-02-22 20:32:00,13.0,0.0,-100.00,NW,310,9.0,22.0,56,-99.99,,,-99.99,,2013-02-23 03:32:00,
2013-02-22 20:41:00,12.0,0.0,-100.00,WNW,290,9.0,20.0,57,-99.99,,,-99.99,,2013-02-23 03:41:00,
2013-02-22 20:51:00,12.0,0.0,-100.00,NNW,330,10.0,21.0,57,-99.99,,,-99.99,,2013-02-23 03:51:00,
2013-02-22 21:01:00,11.0,0.0,-100.00,NW,325,9.0,19.0,59,-99.99,,,-99.99,,2013-02-23 04:01:00,
2013-02-22 21:11:00,12.0,1.0,-100.00,WNW,300,12.0,21.0,59,-99.99,,,-99.99,,2013-02-23 04:11:00,
2013-02-22 21:21:00,12.0,0.0,-100.00,WNW,300,6.0,17.0,58,-99.99,,,-99.99,,2013-02-23 04:21:00,
2013-02-22 21:31:00,13.0,0.0,-100.00,WNW,300,8.0,20.0,56,-99.99,,,-99.99,,2013-02-23 04:31:00,
2013-02-22 21:41:00,12.0,0.0,-100.00,West,275,3.0,17.0,57,-99.99,,,-99.99,,2013-02-23 04:41:00,
2013-02-22 21:51:00,12.0,0.0,-100.00,West,275,9.0,29.0,59,-99.99,,,-99.99,,2013-02-23 04:51:00,
2013-02-22 22:02:00,12.0,1.0,-100.00,West,270,8.0,20.0,59,-99.99,,,-99.99,,2013-02-23 05:02:00,
2013-02-22 22:12:00,12.0,1.0,-100.00,NW,305,10.0,24.0,58,-99.99,,,-99.99,,2013-02-23 05:12:00,
2013-02-22 22:22:00,13.0,1.0,-100.00,SW,235,9.0,29.0,56,-99.99,,,-99.99,,2013-02-23 05:22:00,
2013-02-22 22:32:00,13.0,0.0,-100.00,WNW,295,9.0,27.0,55,-99.99,,,-99.99,,2013-02-23 05:32:00,
2013-02-22 22:41:00,13.0,0.0,-100.00,SW,235,9.0,19.0,55,-99.99,,,-99.99,,2013-02-23 05:41:00,
2013-02-22 22:52:00,13.0,0.0,-100.00,WNW,285,7.0,21.0,56,-99.99,,,-99.99,,2013-02-23 05:52:00,
2013-02-22 23:01:00,13.0,0.0,-100.00,West,260,8.0,22.0,56,-99.99,,,-99.99,,2013-02-23 06:01:00,
2013-02-22 23:11:00,13.0,1.0,-100.00,WNW,300,16.0,34.0,56,-99.99,,,-99.99,,2013-02-23 06:11:00,
2013-02-22 23:22:00,14.0,1.0,-100.00,NW,315,13.0,31.0,54,-99.99,,,-99.99,,2013-02-23 06:22:00,
2013-02-22 23:31:00,15.0,0.0,-100.00,NW,320,13.0,29.0,52,-99.99,,,-99.99,,2013-02-23 06:31:00,
2013-02-22 23:41:00,14.0,0.0,-100.00,NW,315,13.0,28.0,52,-99.99,,,-99.99,,2013-02-23 06:41:00,
2013-02-22 23:51:00,15.0,0.0,-100.00,NW,325,9.0,29.0,50,-99.99,,,-99.99,,2013-02-23 06:51:00,